Location: Ferchesar
(52.6477°N, 12.4298°E)
Time: 05:46:00
(UTC+01:00)

Vanguard 2 Rocket - Pass Details

Date: 04 December 2021
Orbit: 553 x 3325 km, 32.9° (Epoch: 25 January)

Event Time Altitude Azimuth Distance (km) Brightness Sun altitude
Rises 23:05:28 0° 255° (WSW) 4,762 - -57.9°
Reaches altitude 10° 23:09:44 10° 237° (WSW) 4,248 - -58.2°
Maximum altitude 23:16:45 18° 201° (SSW) 4,326 - -58.6°
Drops below altitude 10° 23:25:45 10° 167° (SSE) 5,641 - -59.0°
Sets 23:33:06 0° 152° (SSE) 7,050 - -59.3°
